Location: Arnold
(38.6403°N, 100.0462°W)
Time: 13:38:00
(UTC-05:00)

ISS - Visible Passes

Search period start: 25 March 2019 00:00
Search period end: 04 April 2019 00:00
Orbit: 408 x 411 km, 51.6° (Epoch: 25 March)

Date Brightness Start Highest point End Pass type
(mag) Time Alt. Az. Time Alt. Az. Time Alt. Az.
25 Mar -2.1 20:24:18 10° W 20:27:19 33° NNW 20:30:22 10° NE visible
25 Mar -0.7 22:03:52 10° NNW 22:04:42 11° NNW 22:05:31 10° N visible
26 Mar -1.0 21:12:03 10° NW 21:13:47 13° NNW 21:15:31 10° NNE visible
31 Mar -1.1 21:50:53 10° N 21:52:10 12° NNE 21:52:22 12° NNE visible
01 Apr -0.7 22:35:49 10° NNW 22:36:26 14° NNW 22:36:26 14° NNW visible
02 Apr -1.7 21:45:23 10° NNW 21:47:46 18° NNE 21:47:46 18° NNE visible
03 Apr -1.3 20:55:04 10° NNW 20:56:47 13° NNE 20:58:30 10° NE visible
03 Apr -1.1 22:30:40 10° NW 22:31:51 20° NW 22:31:51 20° NW visible
